FW2402 Weather Reports


Display with metric or nautical units.
time (UTC)temp
F
wind
direction
speed
MPH
gust
MPH
rain 1hr
in
rain 24hr
in
rain mn
in
humidity
%
barometer
mb
20260503012017 69 0 0.0 2.0 0.00 0.25 0.25 94 1010.9
20260503011548 69 0 0.0 1.0 0.00 0.25 0.25 94 1010.9
20260503011016 69 0 0.0 1.0 0.00 0.25 0.25 94 1010.9
20260503010519 69 253 0.0 1.0 0.00 0.25 0.25 94 1010.9
20260503010042 69 0 0.0 2.0 0.00 0.25 0.25 94 1010.7
20260503005516 69 0 0.0 2.0 0.00 0.25 0.25 94 1010.7
20260503005017 69 253 0.0 2.0 0.00 0.25 0.25 94 1010.8
20260503004600 69 0 0.0 2.0 0.00 0.25 0.25 94 1010.4
20260503004022 69 253 0.0 1.0 0.00 0.25 0.25 94 1010.2
20260503003517 69 0 0.0 3.0 0.00 0.25 0.25 94 1010.4
20260503003035 69 0 0.0 3.0 0.00 0.25 0.25 94 1010.3
20260503002517 69 248 1.0 3.0 0.00 0.25 0.25 93 1010.3
20260503002017 69 0 0.0 2.0 0.00 0.25 0.25 93 1010.1
20260503001541 69 0 0.0 3.0 0.00 0.25 0.25 93 1010.2
20260503001016 69 0 0.0 3.0 0.00 0.25 0.25 93 1010.1
20260503000516 69 0 0.0 7.0 0.00 0.25 0.25 93 1010.1
20260503000052 69 228 1.0 7.0 0.00 0.25 0.25 93 1010.0
20260502235516 69 0 3.0 7.0 0.00 0.25 0.25 93 1010.3
20260502235016 69 0 1.0 4.0 0.00 0.25 0.25 93 1010.2
20260502234543 69 0 0.0 3.0 0.00 0.25 0.25 93 1010.1
20260502234016 69 0 0.0 8.0 0.00 0.25 0.25 93 1010.0
20260502233553 69 0 1.0 8.0 0.00 0.25 0.25 93 1010.0
20260502233040 69 241 1.0 6.0 0.00 0.25 0.25 93 1010.1
20260502232516 69 0 2.0 6.0 0.00 0.25 0.25 94 1010.0
20260502232020 69 0 0.0 2.0 0.00 0.25 0.25 94 1009.9
20260502231536 69 0 0.0 3.0 0.00 0.25 0.25 94 1009.8
20260502231017 69 0 0.0 4.0 0.00 0.25 0.25 93 1009.8
20260502230517 69 154 0.0 6.0 0.00 0.25 0.25 93 1009.7
20260502230036 69 178 1.0 6.0 0.00 0.25 0.25 94 1009.8
20260502225520 69 180 0.0 4.0 0.00 0.25 0.25 94 1009.8
20260502225019 69 0 1.0 4.0 0.00 0.25 0.25 94 1009.6
20260502224535 69 149 0.0 4.0 0.00 0.25 0.25 94 1009.8
20260502224021 69 0 0.0 4.0 0.00 0.25 0.25 94 1009.9
20260502223517 69 163 0.0 5.0 0.00 0.25 0.25 94 1010.0
20260502223034 69 0 0.0 7.0 0.00 0.25 0.25 94 1010.0
20260502222516 69 232 1.0 7.0 0.00 0.25 0.25 94 1010.2
20260502222017 68 225 3.0 7.0 0.00 0.25 0.25 94 1010.1
20260502221538 68 257 0.0 7.0 0.00 0.25 0.25 94 1010.1
20260502221016 68 0 0.0 7.0 0.00 0.25 0.25 94 1009.9
20260502220516 68 239 2.0 7.0 0.00 0.25 0.25 94 1009.8
20260502220046 68 0 1.0 7.0 0.00 0.25 0.25 94 1009.4
20260502215522 68 167 3.0 6.0 0.00 0.25 0.25 94 1009.3
20260502215021 69 0 1.0 8.0 0.00 0.25 0.25 94 1009.5
20260502214538 69 108 1.0 9.0 0.00 0.25 0.25 94 1008.9
20260502214016 68 175 3.0 9.0 0.00 0.25 0.25 94 1009.1
20260502213516 68 167 2.0 6.0 0.00 0.25 0.25 94 1009.1
20260502213040 68 0 0.0 6.0 0.00 0.25 0.25 94 1009.6
20260502212517 68 0 0.0 6.0 0.00 0.25 0.25 94 1009.4
20260502212016 69 160 1.0 4.0 0.00 0.25 0.25 94 1008.9
20260502211536 69 0 0.0 3.0 0.00 0.25 0.25 94 1009.1
20260502211017 68 0 0.0 5.0 0.00 0.25 0.25 94 1009.3
20260502210516 68 207 0.0 5.0 0.00 0.25 0.25 94 1009.5
20260502210040 68 240 1.0 7.0 0.01 0.25 0.25 94 1009.6
20260502205516 68 0 0.0 7.0 0.02 0.25 0.25 94 1009.6
20260502205019 69 0 1.0 7.0 0.03 0.25 0.25 94 1009.5
20260502204542 69 261 0.0 10.0 0.04 0.25 0.25 94 1009.8
20260502204016 68 212 2.0 10.0 0.06 0.25 0.25 94 1009.8
20260502203517 69 227 0.0 7.0 0.07 0.25 0.25 94 1009.5
20260502203041 69 248 3.0 7.0 0.08 0.25 0.25 94 1009.7
20260502202516 69 235 0.0 7.0 0.10 0.25 0.25 94 1009.5
20260502202016 68 257 3.0 7.0 0.10 0.25 0.25 94 1009.3
20260502201544 68 269 2.0 6.0 0.10 0.25 0.25 93 1009.2
20260502201016 68 0 1.0 6.0 0.10 0.25 0.25 93 1008.9
20260502200518 68 0 0.0 7.0 0.11 0.25 0.25 93 1008.8
20260502200041 68 0 1.0 7.0 0.11 0.24 0.24 93 1009.0
20260502195516 68 0 0.0 6.0 0.10 0.23 0.23 93 1009.5
20260502195016 68 45 0.0 8.0 0.09 0.22 0.22 92 1009.8
20260502194536 68 229 0.0 9.0 0.12 0.20 0.20 92 1010.4
20260502194019 68 0 2.0 11.0 0.14 0.19 0.19 91 1010.5
20260502193521 68 223 4.0 13.0 0.15 0.18 0.18 91 1011.0
20260502193041 68 256 8.0 13.0 0.16 0.16 0.16 91 1010.8
20260502192520 68 257 7.0 11.0 0.15 0.15 0.15 90 1010.8
20260502192017 68 252 6.0 12.0 0.15 0.15 0.15 90 1011.0
20260502191545 68 258 7.0 18.0 0.15 0.15 0.15 89 1010.8
20260502191016 68 261 11.0 18.0 0.14 0.14 0.14 89 1010.8
20260502190518 68 250 9.0 16.0 0.14 0.14 0.14 89 1010.8
20260502190047 68 267 9.0 26.0 0.13 0.13 0.13 89 1010.8
20260502185516 68 271 12.0 26.0 0.13 0.13 0.13 88 1010.9
20260502185019 69 267 16.0 26.0 0.12 0.12 0.12 87 1011.1
20260502184538 69 273 17.0 29.0 0.08 0.08 0.08 86 1011.3
20260502184016 70 277 17.0 31.0 0.04 0.04 0.04 84 1011.3
20260502183520 71 260 21.0 47.0 0.03 0.03 0.03 80 1011.2
20260502183034 76 260 23.0 47.0 0.00 0.00 0.00 69 1011.4
20260502182519 83 265 13.0 25.0 0.00 0.00 0.00 69 1011.1
20260502182021 83 277 11.0 19.0 0.00 0.00 0.00 69 1010.3
20260502181541 83 250 9.0 18.0 0.00 0.00 0.00 68 1010.2
20260502181019 83 259 9.0 16.0 0.00 0.00 0.00 67 1010.2
20260502180520 83 274 7.0 19.0 0.00 0.00 0.00 67 1010.1
20260502170520 86 264 12.0 20.0 0.00 0.00 0.00 63 1009.9
20260502164019 86 282 11.0 23.0 0.00 0.00 0.00 62 1009.8
20260502163519 85 243 13.0 23.0 0.00 0.00 0.00 64 1010.1
20260502163046 85 229 6.0 18.0 0.00 0.00 0.00 65 1010.1
20260502162520 85 254 7.0 15.0 0.00 0.00 0.00 65 1010.1
20260502162023 84 232 4.0 15.0 0.00 0.00 0.00 66 1010.1
20260502161537 84 252 4.0 12.0 0.00 0.00 0.00 66 1010.1
20260502161017 84 234 5.0 13.0 0.00 0.00 0.00 66 1010.0
20260502160523 84 219 2.0 13.0 0.00 0.00 0.00 66 1010.0
20260502152017 84 212 4.0 14.0 0.00 0.00 0.00 68 1010.3
20260502151558 84 236 7.0 14.0 0.00 0.00 0.00 67 1010.3
20260502151017 84 313 2.0 12.0 0.00 0.00 0.00 68 1010.2
20260502150518 83 197 2.0 16.0 0.00 0.00 0.00 68 1010.1
20260502130517 72 0 2.0 9.0 0.00 0.00 0.00 90 1010.0
20260502123517 71 186 3.0 9.0 0.00 0.00 0.00 95 1009.3
20260502123035 71 159 3.0 7.0 0.00 0.00 0.00 95 1009.5
20260502122518 71 188 2.0 7.0 0.00 0.00 0.00 96 1009.5
20260502122018 70 190 3.0 7.0 0.00 0.00 0.00 96 1009.5
20260502121538 70 153 2.0 5.0 0.00 0.00 0.00 96 1009.5
20260502121018 69 197 1.0 4.0 0.00 0.00 0.00 96 1009.5
20260502120521 69 0 0.0 5.0 0.00 0.00 0.00 96 1009.5
20260502115517 68 184 1.0 6.0 0.00 0.00 0.00 96 1009.2
20260502115017 68 152 2.0 5.0 0.00 0.00 0.00 96 1009.1
20260502114540 68 150 1.0 4.0 0.00 0.00 0.00 96 1009.1
20260502114017 68 182 1.0 4.0 0.00 0.00 0.00 96 1009.2
20260502113517 68 160 1.0 4.0 0.00 0.00 0.00 96 1009.3
20260502113047 67 132 1.0 4.0 0.00 0.00 0.00 96 1009.1
20260502112517 67 136 0.0 5.0 0.00 0.00 0.00 96 1009.2
20260502112020 67 151 0.0 5.0 0.00 0.00 0.00 96 1009.3
20260502111535 67 175 0.0 1.0 0.00 0.00 0.00 96 1009.2
20260502111049 67 0 0.0 2.0 0.00 0.00 0.00 95 1009.3
20260502110517 67 0 0.0 3.0 0.00 0.00 0.00 95 1009.1
20260502110041 67 0 0.0 4.0 0.00 0.00 0.00 95 1008.9
20260502105521 67 161 1.0 4.0 0.00 0.00 0.00 95 1008.8
20260502105018 67 151 0.0 4.0 0.00 0.00 0.00 95 1008.9
20260502104538 67 0 0.0 4.0 0.00 0.00 0.00 95 1008.7
20260502104020 67 167 0.0 4.0 0.00 0.00 0.00 95 1008.6
20260502103517 67 0 0.0 4.0 0.00 0.00 0.00 95 1008.6
20260502103034 67 0 0.0 4.0 0.00 0.00 0.00 95 1008.6
20260502102518 67 0 0.0 4.0 0.00 0.00 0.00 95 1008.5
20260502102018 67 155 0.0 3.0 0.00 0.00 0.00 95 1008.5
20260502101537 67 0 0.0 3.0 0.00 0.00 0.00 95 1008.5
20260502101017 67 118 1.0 2.0 0.00 0.00 0.00 95 1008.4
20260502100517 66 133 0.0 2.0 0.00 0.00 0.00 95 1008.6
20260502091018 64 0 0.0 0.0 0.00 0.00 0.00 95 1009.4
20260502090517 63 0 0.0 0.0 0.00 0.00 0.00 94 1009.5
20260502090106 64 0 0.0 0.0 0.00 0.00 0.00 93 1009.6
20260502071017 65 0 0.0 0.0 0.00 0.00 0.00 94 1009.9
20260502070517 65 0 0.0 0.0 0.00 0.00 0.00 95 1009.9
20260502070048 64 0 0.0 0.0 0.00 0.00 0.00 94 1009.9
20260502065516 65 0 0.0 0.0 0.00 0.00 0.00 94 1010.0
20260502065016 65 0 0.0 0.0 0.00 0.00 0.00 94 1010.0
20260502064540 66 0 0.0 0.0 0.00 0.00 0.00 94 1010.1
20260502064017 66 0 0.0 0.0 0.00 0.00 0.00 95 1010.0
20260502063517 65 0 0.0 0.0 0.00 0.00 0.00 94 1010.1
20260502063040 65 0 0.0 0.0 0.00 0.00 0.00 94 1010.2
20260502062517 65 0 0.0 0.0 0.00 0.00 0.00 94 1010.2
20260502062019 66 0 0.0 0.0 0.00 0.00 0.00 94 1010.4
20260502061532 65 0 0.0 0.0 0.00 0.00 0.00 94 1010.5
20260502061021 65 0 0.0 0.0 0.00 0.00 0.00 94 1010.5
20260502060519 66 0 0.0 0.0 0.00 0.00 0.00 94 1010.7
20260502060042 66 0 0.0 0.0 0.00 0.00 0.00 94 1010.6
20260502055516 66 0 0.0 0.0 0.00 0.00 0.00 94 1010.5
20260502055018 66 0 0.0 0.0 0.00 0.00 0.00 95 1010.6
20260502054537 65 0 0.0 0.0 0.00 0.00 0.00 94 1010.7
20260502054018 65 0 0.0 0.0 0.00 0.00 0.00 95 1010.7
20260502053517 65 0 0.0 0.0 0.00 0.00 0.00 94 1010.8
20260502053036 66 0 0.0 0.0 0.00 0.00 0.00 94 1010.9
20260502052518 66 0 0.0 0.0 0.00 0.00 0.00 94 1010.8
20260502052018 66 0 0.0 0.0 0.00 0.00 0.00 94 1010.7
20260502051534 67 0 0.0 0.0 0.00 0.00 0.00 94 1010.8
20260502051020 66 0 0.0 0.0 0.00 0.00 0.00 94 1010.7
20260502050519 67 0 0.0 0.0 0.00 0.00 0.00 94 1010.7
20260502050040 67 0 0.0 0.0 0.00 0.00 0.00 94 1010.8
20260502045517 66 0 0.0 0.0 0.00 0.00 0.00 93 1010.9
20260502045020 67 0 0.0 0.0 0.00 0.00 0.00 94 1010.8
20260502044541 67 0 0.0 0.0 0.00 0.00 0.00 93 1010.9
20260502044016 67 0 0.0 0.0 0.00 0.00 0.00 93 1010.9
20260502043516 67 0 0.0 0.0 0.00 0.00 0.00 93 1010.7
20260502043042 67 0 0.0 0.0 0.00 0.00 0.00 93 1010.8
20260502042520 67 0 0.0 0.0 0.00 0.00 0.00 93 1010.8
20260502042019 67 0 0.0 0.0 0.00 0.00 0.00 93 1010.7
20260502041545 67 0 0.0 0.0 0.00 0.00 0.00 92 1010.6
20260502041022 68 0 0.0 0.0 0.00 0.00 0.00 91 1010.7
20260502040517 68 0 0.0 0.0 0.00 0.00 0.00 92 1010.6
20260502040036 68 0 0.0 0.0 0.00 0.00 0.00 91 1010.6
20260502035517 69 0 0.0 0.0 0.00 0.00 0.00 91 1010.7
20260502035017 69 0 0.0 0.0 0.00 0.00 0.00 91 1010.7
20260502034535 68 0 0.0 0.0 0.00 0.00 0.00 92 1010.7
20260502034019 68 0 0.0 0.0 0.00 0.00 0.00 91 1010.7
20260502033516 69 0 0.0 0.0 0.00 0.00 0.00 91 1010.6
20260502033034 68 0 0.0 0.0 0.00 0.00 0.00 90 1010.7
20260502032516 69 0 0.0 0.0 0.00 0.00 0.00 92 1010.4
20260502032016 69 0 0.0 0.0 0.00 0.00 0.00 90 1010.6
20260502031541 69 0 0.0 0.0 0.00 0.00 0.00 90 1010.7
20260502031017 69 0 0.0 0.0 0.00 0.00 0.00 90 1010.7
20260502030517 69 0 0.0 0.0 0.00 0.00 0.00 89 1010.7
20260502030042 69 0 0.0 0.0 0.00 0.00 0.00 89 1010.7
20260502025517 69 0 0.0 0.0 0.00 0.00 0.00 87 1010.7
20260502025016 70 0 0.0 0.0 0.00 0.00 0.00 86 1010.8
20260502024541 71 0 0.0 0.0 0.00 0.00 0.00 87 1010.8
20260502024017 72 0 0.0 0.0 0.00 0.00 0.00 86 1010.7
20260502023520 72 0 0.0 0.0 0.00 0.00 0.00 86 1010.7
20260502023051 72 0 0.0 0.0 0.00 0.00 0.00 87 1010.8
20260502022517 72 0 0.0 0.0 0.00 0.00 0.00 87 1010.8
20260502022016 72 0 0.0 0.0 0.00 0.00 0.00 86 1010.9
20260502021535 72 0 0.0 0.0 0.00 0.00 0.00 85 1010.9
20260502021018 73 0 0.0 1.0 0.00 0.00 0.00 85 1010.8
20260502020517 73 0 0.0 1.0 0.00 0.00 0.00 84 1010.6
20260502020032 73 0 0.0 2.0 0.00 0.00 0.00 84 1010.6
20260502015517 73 0 0.0 2.0 0.00 0.00 0.00 84 1010.7
20260502015019 73 0 1.0 3.0 0.00 0.00 0.00 83 1010.6
20260502014538 73 271 1.0 3.0 0.00 0.00 0.00 83 1010.6
20260502014019 74 271 1.0 4.0 0.00 0.00 0.00 82 1010.7
20260502013516 74 271 1.0 4.0 0.00 0.00 0.00 82 1010.6
20260502013040 74 276 1.0 6.0 0.00 0.00 0.00 81 1010.6
20260502012520 74 275 2.0 6.0 0.00 0.00 0.00 81 1010.4